[[{"header":{"parameterUnit":"m.s-1","parameterCategory":1,"la1":30.2991,"la2":30.254,"lo1":-89.0895,"lo2":-89.0444,"dy":0.0017,"dx":0.0017,"nx":28,"ny":28,"refTime":"2024-08-04T03:00:00:Z","depth":0,"parameterNumber":2,"parameterNumberName":"U-component_of_WINDS"},"data":[0,0,0,0,0,0,0,0,0,0,0,0,0,0,0,0,0,0,0,0,0,0,0,0,0,0,0,0,0,0,0,0,0,0,0,0,0,0,0,0,0,0,0,0,0,0,0,0,0,0,0,0,0,0,0,0,0,0,-0.3954,-0.3955,0,-0.4033,-0.4034,-0.4035,-0.4063,-0.4063,-0.4062,-0.4062,-0.4145,-0.4148,-0.415,0,0,0,0,0,0,0,0,0,0,0,0,0,-0.3831,-0.3833,-0.3954,-0.3955,-0.3956,-0.4033,-0.4034,-0.4035,-0.4063,-0.4063,-0.4062,-0.4062,-0.4144,-0.4147,-0.415,0,0,0,0,0,0,0,0,0,0,0,0,0,-0.3895,-0.3834,-0.3954,-0.3979,-0.3982,-0.4033,-0.4034,-0.4035,-0.4063,-0.4063,-0.4062,-0.4062,-0.4143,-0.4147,-0.4151,-0.4183,0,0,-0.4162,-0.4164,0,0,0,0,0,0,0,0,-0.3891,-0.3899,-0.3975,-0.3978,-0.3981,-0.4038,-0.4021,-0.4085,-0.4063,-0.4032,-0.4062,-0.4062,-0.411,-0.4116,-0.4132,-0.4187,-0.419,-0.4163,-0.4165,-0.4166,-0.4167,0,0,0,0,0,0,0,-0.3887,-0.3896,-0.3985,-0.3976,-0.398,-0.3988,-0.3996,-0.4033,-0.4073,-0.4035,-0.4037,-0.4046,-0.4112,-0.4129,-0.4134,-0.4191,-0.4162,-0.4166,-0.4168,-0.417,-0.4279,-0.428,0,0,0,0,0,0,-0.3878,-0.3892,-0.3983,-0.3988,-0.3934,-0.399,-0.4,-0.402,-0.4072,-0.408,-0.4046,-0.4047,-0.4122,-0.413,-0.4137,-0.418,-0.4166,-0.417,-0.4172,-0.4278,-0.4279,-0.428,0,0,0,0,0,0,-0.3875,-0.3885,-0.398,-0.3941,-0.3953,-0.3993,-0.4015,-0.4022,-0.4039,-0.4081,-0.4088,-0.4056,-0.4122,-0.4132,-0.4172,-0.4183,-0.4172,-0.4175,-0.4277,-0.4278,-0.4279,-0.4264,0,0,0,0,0,0,-0.3871,-0.3884,-0.3896,-0.3941,-0.3955,-0.4011,-0.4016,-0.4024,-0.4045,-0.4046,-0.4092,-0.4099,-0.4123,-0.4166,-0.4175,-0.4188,-0.4178,-0.4277,-0.4278,-0.4279,-0.4263,-0.4264,-0.4265,0,0,0,0,0,-0.3867,-0.3888,-0.3896,-0.3907,-0.397,-0.4012,-0.402,-0.4046,-0.4045,-0.4058,-0.4086,-0.4098,-0.418,-0.417,-0.4181,-0.4195,-0.4276,-0.4278,-0.4279,-0.4263,-0.4264,-0.4265,0,0,0,0,0,0,-0.3843,-0.3894,-0.3904,-0.394,-0.3971,-0.4016,-0.4033,-0.4046,-0.4078,-0.4079,-0.411,-0.4121,-0.4158,-0.418,-0.4168,-0.423,-0.4229,-0.4233,-0.4213,-0.4215,-0.4215,-0.4209,-0.4181,0,0,0,0,0,-0.3842,-0.3871,-0.3914,-0.3942,-0.3958,-0.3993,-0.4012,-0.4029,-0.4063,-0.4077,-0.4107,-0.414,-0.4174,-0.4196,-0.4229,-0.4267,-0.4279,-0.4282,-0.4283,-0.4283,-0.4286,-0.4311,-0.4313,-0.4285,-0.4285,-0.4285,0,0,-0.3841,-0.3872,-0.3888,-0.3939,-0.3965,-0.3995,-0.4003,-0.4034,-0.4058,-0.4082,-0.4121,-0.4145,-0.4184,-0.4224,-0.4243,-0.4244,-0.4297,-0.4285,-0.4285,-0.4288,-0.4313,-0.4315,-0.4318,-0.4286,-0.4286,-0.4285,0,0,-0.3853,-0.3879,-0.3906,-0.3933,-0.3973,-0.3996,-0.4003,-0.4047,-0.4063,-0.4103,-0.4122,-0.4151,-0.4208,-0.4236,-0.4258,-0.4284,-0.4297,-0.4294,-0.4297,-0.4321,-0.4323,-0.4325,-0.4336,-0.4339,-0.4297,-0.4297,-0.4297,0,-0.3846,-0.3891,-0.3919,-0.3949,-0.3972,-0.3995,-0.4024,-0.4048,-0.4097,-0.4113,-0.4113,-0.4187,-0.4215,-0.4262,-0.4269,-0.4285,-0.4295,-0.4289,-0.432,-0.4323,-0.4325,-0.4336,-0.434,-0.4296,-0.4296,-0.4296,-0.4296,0,-0.3882,-0.3913,-0.3931,-0.3977,-0.4002,-0.4031,-0.4064,-0.4086,-0.4102,-0.4126,-0.4168,-0.4203,-0.4245,-0.4258,-0.4273,-0.4308,-0.4308,-0.4314,-0.4314,-0.4327,-0.4338,-0.4342,-0.4295,-0.4296,-0.4296,-0.4296,0,0,-0.388,-0.3943,-0.3949,-0.3971,-0.4018,-0.4044,-0.4076,-0.4116,-0.4135,-0.4169,-0.4197,-0.4246,-0.4253,-0.4277,-0.4297,-0.4317,-0.4338,-0.4321,-0.4323,-0.4324,-0.4381,-0.4377,-0.4381,-0.4348,-0.4348,-0.4349,-0.4379,0,-0.3899,-0.3956,-0.3983,-0.4028,-0.4059,-0.4082,-0.411,-0.4143,-0.4167,-0.4198,-0.4225,-0.426,-0.4265,-0.428,-0.4301,-0.4331,-0.435,-0.4329,-0.4376,-0.4377,-0.4365,-0.4386,-0.4381,-0.4407,-0.4383,-0.4383,-0.4384,0,-0.3929,-0.3963,-0.4011,-0.4057,-0.407,-0.4095,-0.4135,-0.4164,-0.4203,-0.4219,-0.4248,-0.4267,-0.4304,-0.4302,-0.4353,-0.4339,-0.436,-0.4378,-0.4379,-0.4385,-0.4381,-0.4393,-0.4416,-0.442,-0.4391,-0.439,-0.439,0,-0.3924,-0.3982,-0.4019,-0.4037,-0.4091,-0.4108,-0.4131,-0.4169,-0.4193,-0.4229,-0.4245,-0.4285,-0.4307,-0.4339,-0.4369,-0.4365,-0.4419,-0.4419,-0.4435,-0.4435,-0.4445,-0.4444,-0.4472,-0.4458,-0.4458,-0.4458,-0.4458,0,-0.3943,-0.3972,-0.4018,-0.404,-0.4075,-0.4106,-0.4139,-0.4165,-0.4199,-0.4228,-0.4252,-0.4279,-0.4318,-0.4351,-0.4375,-0.4416,-0.4426,-0.4441,-0.4447,-0.4439,-0.4437,-0.4453,-0.4453,-0.4459,-0.4459,-0.4459,-0.4458,0,-0.3943,-0.3975,-0.4017,-0.4065,-0.4078,-0.4101,-0.4142,-0.4167,-0.4193,-0.423,-0.4241,-0.4282,-0.4322,-0.4356,-0.4409,-0.4426,-0.4468,-0.4475,-0.4455,-0.4458,-0.4473,-0.4471,-0.4512,-0.452,-0.45,-0.45,-0.45,0,-0.3953,-0.3976,-0.4027,-0.4048,-0.4071,-0.4104,-0.4129,-0.4162,-0.4187,-0.4234,-0.4253,-0.4295,-0.433,-0.4394,-0.443,-0.4471,-0.448,-0.4492,-0.4486,-0.4478,-0.4482,-0.448,-0.4484,-0.4492,-0.4492,-0.4492,-0.4492,0,-0.3967,-0.3983,-0.4016,-0.4056,-0.4085,-0.4118,-0.4152,-0.4168,-0.4208,-0.4235,-0.4276,-0.4304,-0.4359,-0.4401,-0.4447,-0.4473,-0.449,-0.4494,-0.45,-0.4492,-0.448,-0.4488,-0.4457,-0.4493,-0.4492,-0.4492,-0.4492,-0.4492,-0.3973,-0.3996,-0.4035,-0.4073,-0.4102,-0.4134,-0.416,-0.4189,-0.4224,-0.4271,-0.4289,-0.4332,-0.4373,-0.4436,-0.4463,-0.4498,-0.45,-0.4509,-0.4511,-0.4513,-0.4512,-0.4474,-0.4507,-0.4507,-0.4507,-0.4507,-0.4507,0,-0.399,-0.4017,-0.4052,-0.4099,-0.4129,-0.4142,-0.4181,-0.4206,-0.4243,-0.428,-0.4314,-0.4363,-0.4405,-0.4445,-0.4489,-0.451,-0.452,-0.4521,-0.452,-0.4526,-0.4507,-0.4498,-0.4513,-0.4513,-0.4513,-0.4513,-0.4513,-0.4513,-0.4002,-0.4041,-0.4061,-0.4116,-0.4144,-0.4185,-0.4207,-0.4237,-0.4267,-0.432,-0.4355,-0.4381,-0.442,-0.4468,-0.4508,-0.4519,-0.4534,-0.4534,-0.4547,-0.4528,-0.4527,-0.4526,-0.4518,-0.4537,-0.4537,-0.4563,-0.4564,-0.4564]},{"header":{"parameterUnit":"m.s-1","parameterCategory":1,"la1":30.2991,"la2":30.254,"lo1":-89.0895,"lo2":-89.0444,"dy":0.0017,"dx":0.0017,"nx":28,"ny":28,"refTime":"2024-08-04T03:00:00:Z","depth":0,"parameterNumber":3,"parameterNumberName":"V-component_of_WINDS"},"data":[0,0,0,0,0,0,0,0,0,0,0,0,0,0,0,0,0,0,0,0,0,0,0,0,0,0,0,0,0,0,0,0,0,0,0,0,0,0,0,0,0,0,0,0,0,0,0,0,0,0,0,0,0,0,0,0,0,0,-4.1107,-4.1107,0,-4.1132,-4.1132,-4.1133,-4.1073,-4.1071,-4.1069,-4.1067,-4.1089,-4.1091,-4.1093,0,0,0,0,0,0,0,0,0,0,0,0,0,-4.1002,-4.1004,-4.1107,-4.1107,-4.1107,-4.1132,-4.1132,-4.1133,-4.1073,-4.1071,-4.1068,-4.1066,-4.1088,-4.1091,-4.1094,0,0,0,0,0,0,0,0,0,0,0,0,0,-4.1039,-4.1005,-4.1106,-4.108,-4.1078,-4.1132,-4.1132,-4.1133,-4.1073,-4.1071,-4.1068,-4.1065,-4.1087,-4.109,-4.1094,-4.1172,0,0,-4.1105,-4.1106,0,0,0,0,0,0,0,0,-4.1037,-4.1043,-4.1084,-4.1082,-4.108,-4.1096,-4.1103,-4.1146,-4.1074,-4.1075,-4.1067,-4.1064,-4.1093,-4.1096,-4.1107,-4.1173,-4.1174,-4.1105,-4.1107,-4.1109,-4.111,0,0,0,0,0,0,0,-4.1035,-4.1042,-4.1116,-4.1085,-4.1082,-4.1066,-4.1068,-4.1111,-4.11,-4.1075,-4.1071,-4.1075,-4.1092,-4.1104,-4.1107,-4.1175,-4.1105,-4.1108,-4.111,-4.1112,-4.1307,-4.131,0,0,0,0,0,0,-4.1036,-4.104,-4.1116,-4.1117,-4.1051,-4.107,-4.1073,-4.1094,-4.1099,-4.1097,-4.1077,-4.1072,-4.1099,-4.1103,-4.1108,-4.12,-4.1109,-4.1112,-4.1114,-4.1304,-4.1308,-4.1311,0,0,0,0,0,0,-4.1034,-4.1043,-4.1115,-4.1078,-4.1085,-4.1075,-4.1099,-4.1096,-4.1108,-4.1101,-4.1098,-4.1092,-4.1097,-4.1103,-4.1157,-4.12,-4.1113,-4.1117,-4.13,-4.1305,-4.1309,-4.1386,0,0,0,0,0,0,-4.1031,-4.1043,-4.1074,-4.1079,-4.1088,-4.1165,-4.1102,-4.1098,-4.1115,-4.1108,-4.1114,-4.1112,-4.1095,-4.1152,-4.1161,-4.1203,-4.1119,-4.1297,-4.1303,-4.1308,-4.1379,-4.1392,-4.1404,0,0,0,0,0,-4.1028,-4.1093,-4.1076,-4.1085,-4.1126,-4.1168,-4.1173,-4.1153,-4.1118,-4.1149,-4.1144,-4.1112,-4.1194,-4.1158,-4.1167,-4.1212,-4.1294,-4.1301,-4.1308,-4.1374,-4.139,-4.1403,0,0,0,0,0,0,-4.1091,-4.1093,-4.1074,-4.1143,-4.1156,-4.1158,-4.1195,-4.1171,-4.1192,-4.1185,-4.1159,-4.116,-4.122,-4.1221,-4.1181,-4.1288,-4.1238,-4.1247,-4.1285,-4.13,-4.1312,-4.131,-4.1122,0,0,0,0,0,-4.1114,-4.1149,-4.1148,-4.1209,-4.1217,-4.1205,-4.1222,-4.1207,-4.1218,-4.1223,-4.1222,-4.1234,-4.1262,-4.1281,-4.1307,-4.1379,-4.1379,-4.1414,-4.1426,-4.1436,-4.1444,-4.1483,-4.1498,-4.1334,-4.1334,-4.1334,0,0,-4.1159,-4.1165,-4.1188,-4.1222,-4.123,-4.1266,-4.121,-4.125,-4.1276,-4.1228,-4.128,-4.1281,-4.1291,-4.1356,-4.1384,-4.1358,-4.149,-4.1445,-4.1453,-4.1456,-4.1492,-4.1507,-4.1521,-4.1339,-4.1338,-4.1337,0,0,-4.1262,-4.127,-4.1322,-4.1332,-4.1345,-4.1337,-4.135,-4.1356,-4.1355,-4.1407,-4.1372,-4.1402,-4.1451,-4.1461,-4.1472,-4.1579,-4.155,-4.1588,-4.1651,-4.1689,-4.1702,-4.1713,-4.1751,-4.1765,-4.1596,-4.1596,-4.1596,0,-4.1316,-4.1371,-4.1351,-4.1394,-4.141,-4.137,-4.1422,-4.1432,-4.1453,-4.1464,-4.1436,-4.1498,-4.1502,-4.1568,-4.1594,-4.1605,-4.1618,-4.1587,-4.1702,-4.1713,-4.1723,-4.1759,-4.1774,-4.1601,-4.16,-4.16,-4.1599,0,-4.1437,-4.1476,-4.1516,-4.1539,-4.1559,-4.1606,-4.1593,-4.1615,-4.1598,-4.1592,-4.1646,-4.165,-4.1676,-4.1691,-4.1673,-4.1754,-4.1738,-4.1707,-4.1655,-4.1744,-4.1777,-4.1791,-4.1607,-4.1605,-4.1604,-4.1603,0,0,-4.1579,-4.1592,-4.1607,-4.1618,-4.1631,-4.1659,-4.1704,-4.1732,-4.1751,-4.1767,-4.1804,-4.1847,-4.1818,-4.1831,-4.1815,-4.1848,-4.1933,-4.1812,-4.1812,-4.1834,-4.2022,-4.2046,-4.2063,-4.1914,-4.1917,-4.1919,-4.2021,0,-4.168,-4.176,-4.1744,-4.1821,-4.1856,-4.182,-4.1859,-4.1871,-4.1867,-4.1895,-4.189,-4.1922,-4.1881,-4.1889,-4.192,-4.1916,-4.197,-4.1908,-4.1947,-4.1949,-4.1946,-4.208,-4.2105,-4.2202,-4.2034,-4.2036,-4.2038,0,-4.1808,-4.1832,-4.1914,-4.1922,-4.1936,-4.1972,-4.1996,-4.2023,-4.2035,-4.203,-4.2046,-4.2023,-4.2067,-4.2016,-4.2076,-4.2034,-4.2049,-4.2049,-4.2053,-4.2055,-4.1999,-4.2086,-4.2232,-4.2247,-4.2058,-4.2057,-4.2055,0,-4.1904,-4.1955,-4.2011,-4.2021,-4.2032,-4.2058,-4.2063,-4.2073,-4.2091,-4.2111,-4.2122,-4.2147,-4.2161,-4.218,-4.2164,-4.2129,-4.2226,-4.2174,-4.2223,-4.2223,-4.2244,-4.2243,-4.2395,-4.2255,-4.2254,-4.2254,-4.2254,0,-4.2018,-4.207,-4.2054,-4.2088,-4.2145,-4.2125,-4.2181,-4.2182,-4.2191,-4.2224,-4.2193,-4.2224,-4.2202,-4.2231,-4.2218,-4.227,-4.2276,-4.2272,-4.2269,-4.2275,-4.2276,-4.2284,-4.2277,-4.2258,-4.2257,-4.2256,-4.2256,0,-4.2134,-4.2126,-4.2184,-4.2191,-4.2193,-4.2235,-4.2239,-4.227,-4.2265,-4.2307,-4.2316,-4.2307,-4.234,-4.2326,-4.236,-4.2352,-4.2418,-4.2405,-4.2414,-4.2411,-4.246,-4.2456,-4.2623,-4.2643,-4.249,-4.2492,-4.2493,0,-4.2207,-4.2246,-4.2258,-4.2279,-4.2287,-4.2321,-4.2339,-4.2321,-4.2342,-4.2359,-4.2388,-4.2419,-4.2442,-4.2496,-4.2492,-4.2517,-4.2505,-4.2562,-4.2508,-4.2514,-4.2506,-4.2504,-4.2507,-4.2572,-4.2574,-4.2575,-4.2576,0,-4.2339,-4.2333,-4.2362,-4.239,-4.2414,-4.2434,-4.2451,-4.247,-4.2453,-4.2477,-4.2511,-4.253,-4.2565,-4.2596,-4.2619,-4.2623,-4.2597,-4.2593,-4.2606,-4.2613,-4.2617,-4.2616,-4.2443,-4.2589,-4.2588,-4.2587,-4.2586,-4.2586,-4.2435,-4.2469,-4.2482,-4.2516,-4.2528,-4.2545,-4.2575,-4.2575,-4.2603,-4.2632,-4.262,-4.2659,-4.267,-4.2699,-4.2707,-4.2736,-4.2714,-4.2732,-4.2737,-4.2742,-4.2748,-4.2613,-4.274,-4.274,-4.274,-4.2739,-4.2739,0,-4.2565,-4.2572,-4.2603,-4.263,-4.2657,-4.2632,-4.265,-4.2673,-4.2709,-4.2723,-4.2747,-4.2786,-4.2816,-4.2815,-4.2842,-4.2866,-4.2854,-4.2873,-4.2871,-4.2873,-4.2767,-4.2753,-4.2882,-4.2882,-4.2882,-4.2882,-4.2882,-4.2882,-4.2635,-4.2691,-4.2687,-4.2748,-4.2754,-4.2794,-4.2807,-4.2823,-4.2834,-4.288,-4.2905,-4.2904,-4.2912,-4.2939,-4.2965,-4.2964,-4.2975,-4.2999,-4.2993,-4.2894,-4.288,-4.2866,-4.2854,-4.3001,-4.3002,-4.3096,-4.3097,-4.3098]}]]